Location: Foligno
(42.9600°N, 12.7050°E)
Time: 06:38:31
(UTC+01:00)

ISS - Pass Details

Date: 11 November 2018
Orbit: 402 x 408 km, 51.6° (Epoch: 16 November)

Event Time Altitude Azimuth Distance (km) Brightness Sun altitude
Exits shadow 05:08:42 33° 5° (N) 698 -2.7 -19.8°
Maximum altitude 05:09:06 35° 23° (NNE) 675 -2.6 -19.7°
Drops below altitude 10° 05:12:09 10° 92° (E) 1,460 0.2 -19.2°
Sets 05:14:21 0° 101° (ESE) 2,320 1.7 -18.8°
